WA4FG Weather Reports


Display with metric or nautical units.
time (UTC)temp
F
wind
direction
speed
MPH
gust
MPH
rain 1hr
in
rain 24hr
in
rain mn
in
humidity
%
barometer
mb
20260509011550 60 220 0.0 0.0 0.00 0.00 0.00 91 1012.5
20260509011040 60 220 0.0 0.0 0.00 0.00 0.00 91 1012.6
20260509010542 60 220 0.0 0.0 0.00 0.00 0.00 91 1012.6
20260509010012 60 220 0.0 0.0 0.00 0.00 0.00 90 1012.6
20260509005459 60 220 0.0 0.0 0.00 0.00 0.00 90 1012.6
20260509004448 61 220 0.0 0.0 0.00 0.00 0.00 89 1012.7
20260509003950 61 220 0.0 0.0 0.00 0.00 0.00 89 1012.8
20260509003416 61 220 0.0 0.0 0.00 0.00 0.00 89 1012.7
20260509002913 61 220 0.0 0.0 0.00 0.00 0.00 89 1012.9
20260509002347 61 220 0.0 0.0 0.00 0.00 0.00 89 1012.8
20260509001826 62 220 0.0 0.0 0.00 0.00 0.00 90 1012.8
20260509001254 62 220 0.0 0.0 0.00 0.00 0.00 90 1012.8
20260509000745 62 220 0.0 0.0 0.00 0.00 0.00 90 1012.7
20260509000219 62 220 0.0 0.0 0.00 0.00 0.00 90 1012.8
20260508235713 62 220 0.0 0.0 0.00 0.00 0.00 90 1012.9
20260508235210 62 220 0.0 0.0 0.00 0.00 0.00 89 1013.1
20260508234708 62 220 0.0 0.0 0.00 0.00 0.00 88 1013.1
20260508234152 62 220 0.0 0.0 0.00 0.00 0.00 87 1013.4
20260508233653 62 220 0.0 0.0 0.00 0.00 0.00 86 1013.7
20260508233150 62 220 0.0 0.0 0.00 0.00 0.00 86 1013.5
20260508232647 62 220 0.0 0.0 0.00 0.00 0.00 86 1013.6
20260508232144 62 220 0.0 0.0 0.00 0.00 0.00 85 1013.5
20260508231640 62 220 0.0 0.0 0.00 0.00 0.00 84 1013.8
20260508231112 63 220 0.0 0.0 0.00 0.00 0.00 84 1013.8
20260508230615 63 220 0.0 0.0 0.00 0.00 0.00 84 1014.1
20260508230100 63 220 0.0 0.0 0.00 0.00 0.00 85 1013.9
20260508225532 63 220 0.0 0.0 0.00 0.00 0.00 85 1014.1
20260508225029 63 220 0.0 0.0 0.00 0.00 0.00 84 1013.6
20260508224516 63 220 0.0 0.0 0.00 0.00 0.00 84 1013.7
20260508223956 64 220 0.0 0.0 0.00 0.00 0.00 84 1013.9
20260508223457 64 220 0.0 0.0 0.00 0.00 0.00 83 1013.8
20260508222950 64 220 0.0 0.0 0.00 0.00 0.00 83 1013.9
20260508222447 64 220 0.0 0.0 0.00 0.00 0.00 84 1014.0
20260508221920 64 220 0.0 0.0 0.00 0.00 0.00 82 1013.9
20260508221416 64 220 0.0 0.0 0.00 0.00 0.00 82 1014.0
20260508220913 64 220 0.0 0.0 0.00 0.00 0.00 81 1013.9
20260508220414 64 220 0.0 0.0 0.00 0.00 0.00 83 1014.0
20260508215353 65 220 0.0 0.0 0.00 0.00 0.00 81 1013.8
20260508214820 65 220 0.0 0.0 0.00 0.00 0.00 81 1013.8
20260508214310 65 220 0.0 0.0 0.00 0.00 0.00 81 1013.9
20260508213807 65 220 0.0 0.0 0.00 0.00 0.00 81 1013.9
20260508213305 65 220 0.0 0.0 0.00 0.00 0.00 77 1014.0
20260508212807 65 220 0.0 0.0 0.00 0.00 0.00 78 1014.0
20260508212247 65 220 0.0 0.0 0.00 0.00 0.00 79 1014.0
20260508211747 65 220 0.0 0.0 0.00 0.00 0.00 79 1014.2
20260508211226 65 220 0.0 0.0 0.00 0.00 0.00 79 1014.2
20260508210723 65 220 0.0 0.0 0.00 0.00 0.00 77 1014.0
20260508210201 65 220 0.0 0.0 0.00 0.00 0.00 76 1014.2
20260508205147 65 225 0.0 5.0 0.00 0.00 0.00 74 1014.3
20260508204647 65 215 0.0 0.0 0.00 0.00 0.00 77 1014.3
20260508204144 65 215 0.0 0.0 0.00 0.00 0.00 77 1014.4
20260508203625 65 215 0.0 0.0 0.00 0.00 0.00 75 1014.3
20260508203124 65 215 0.0 0.0 0.00 0.00 0.00 79 1014.0
20260508202623 65 215 0.0 0.0 0.00 0.00 0.00 80 1014.1
20260508202100 65 215 0.0 0.0 0.00 0.00 0.00 78 1014.4
20260508201538 65 215 0.0 0.0 0.00 0.00 0.00 78 1014.3
20260508201037 65 215 0.0 0.0 0.00 0.00 0.00 75 1014.4
20260508200030 65 215 0.0 0.0 0.00 0.00 0.00 76 1014.4
20260508195527 65 215 0.0 0.0 0.00 0.00 0.00 77 1014.3
20260508195025 65 215 0.0 0.0 0.00 0.00 0.00 72 1014.5
20260508194505 65 215 0.0 0.0 0.00 0.00 0.00 75 1014.5
20260508193939 65 215 0.0 2.0 0.00 0.00 0.00 70 1014.7
20260508193419 65 215 0.0 2.0 0.00 0.00 0.00 72 1014.7
20260508192857 65 215 0.0 0.0 0.00 0.00 0.00 71 1014.7
20260508192356 66 215 0.0 1.0 0.00 0.00 0.00 72 1014.8
20260508191853 66 215 0.0 1.0 0.00 0.00 0.00 68 1014.9
20260508191353 65 232 0.0 1.0 0.00 0.00 0.00 67 1014.8
20260508190849 65 232 0.0 5.0 0.00 0.00 0.00 67 1014.7
20260508190335 66 233 0.0 5.0 0.00 0.00 0.00 67 1014.5
20260508185835 66 112 0.0 1.0 0.00 0.00 0.00 67 1014.3
20260508184747 66 200 0.0 1.0 0.00 0.00 0.00 70 1014.8
20260508184243 66 184 0.0 0.0 0.00 0.00 0.00 66 1014.8
20260508183742 66 185 0.0 4.0 0.00 0.00 0.00 68 1015.0
20260508183212 66 185 0.0 4.0 0.00 0.00 0.00 64 1014.8
20260508182649 66 246 0.0 4.0 0.00 0.00 0.00 65 1015.2
20260508182147 66 110 0.0 4.0 0.00 0.00 0.00 63 1015.5
20260508181646 66 239 0.0 2.0 0.00 0.00 0.00 63 1015.5
20260508181144 66 239 0.0 4.0 0.00 0.00 0.00 62 1015.5
20260508180641 66 247 0.0 4.0 0.00 0.00 0.00 62 1015.8
20260508180141 66 223 0.0 4.0 0.00 0.00 0.00 61 1015.6
20260508175640 66 227 0.0 4.0 0.00 0.00 0.00 61 1015.7
20260508175142 67 146 0.0 0.0 0.00 0.00 0.00 63 1015.8
20260508174112 66 187 0.0 4.0 0.00 0.00 0.00 65 1016.2
20260508173612 66 187 0.0 4.0 0.00 0.00 0.00 61 1016.2
20260508173105 66 186 0.0 4.0 0.00 0.00 0.00 60 1016.1
20260508172034 66 219 0.0 5.0 0.00 0.00 0.00 61 1015.8
20260508171526 66 211 0.0 5.0 0.00 0.00 0.00 62 1016.1
20260508171024 66 342 1.0 5.0 0.00 0.00 0.00 61 1016.4
20260508170457 66 169 1.0 5.0 0.00 0.00 0.00 57 1016.4
20260508165954 66 165 0.0 4.0 0.00 0.00 0.00 60 1016.4
20260508165428 66 166 0.0 4.0 0.00 0.00 0.00 60 1016.5
20260508164917 66 243 1.0 5.0 0.00 0.00 0.00 65 1016.7
20260508164414 66 226 1.0 5.0 0.00 0.00 0.00 60 1016.8
20260508163852 66 210 0.0 5.0 0.00 0.00 0.00 59 1016.8
20260508163351 66 265 1.0 5.0 0.00 0.00 0.00 58 1016.9
20260508162849 67 154 1.0 5.0 0.00 0.00 0.00 59 1016.9
20260508162347 67 209 1.0 5.0 0.00 0.00 0.00 58 1016.8
20260508161848 67 215 1.0 5.0 0.00 0.00 0.00 61 1016.9
20260508161323 67 234 1.0 5.0 0.00 0.00 0.00 57 1017.0
20260508160755 67 246 1.0 5.0 0.00 0.00 0.00 60 1017.1
20260508155737 66 294 0.0 5.0 0.00 0.00 0.00 62 1017.2
20260508155234 66 265 0.0 1.0 0.00 0.00 0.00 62 1017.2
20260508154736 65 262 0.0 6.0 0.00 0.00 0.00 61 1017.6
20260508154233 65 237 0.0 6.0 0.00 0.00 0.00 65 1017.6
20260508153730 65 237 0.0 4.0 0.00 0.00 0.00 63 1017.5
20260508153240 65 279 0.0 4.0 0.00 0.00 0.00 67 1017.4
20260508152724 64 273 0.0 2.0 0.00 0.00 0.00 69 1017.4
20260508152201 64 273 0.0 1.0 0.00 0.00 0.00 71 1017.3
20260508151702 64 273 0.0 1.0 0.00 0.00 0.00 69 1017.3
20260508151134 63 273 0.0 0.0 0.00 0.00 0.00 79 1017.2
20260508150634 63 273 0.0 0.0 0.00 0.00 0.00 74 1017.2
20260508145114 62 273 0.0 0.0 0.00 0.00 0.00 79 1017.4
20260508144613 62 273 0.0 0.0 0.00 0.00 0.00 76 1017.6
20260508144112 62 273 0.0 0.0 0.00 0.00 0.00 78 1017.6
20260508143611 62 273 0.0 0.0 0.00 0.00 0.00 77 1017.6
20260508143041 62 273 0.0 0.0 0.00 0.00 0.00 81 1017.7
20260508142533 61 273 0.0 0.0 0.00 0.00 0.00 80 1017.7
20260508142041 61 273 0.0 0.0 0.00 0.00 0.00 81 1017.8
20260508141519 60 273 0.0 0.0 0.00 0.00 0.00 83 1017.7
20260508141017 60 273 0.0 0.0 0.00 0.00 0.00 82 1017.8
20260508140008 59 273 0.0 0.0 0.00 0.00 0.00 89 1018.0
20260508135505 59 273 0.0 0.0 0.00 0.00 0.00 88 1018.1
20260508134452 58 273 0.0 0.0 0.00 0.00 0.00 92 1018.1
20260508133926 58 273 0.0 0.0 0.00 0.00 0.00 93 1018.2
20260508133400 58 273 0.0 0.0 0.00 0.00 0.00 94 1018.2
20260508132857 57 273 0.0 0.0 0.00 0.00 0.00 94 1018.2
20260508132354 57 273 0.0 0.0 0.00 0.00 0.00 96 1018.2
20260508131826 57 273 0.0 0.0 0.00 0.00 0.00 97 1018.1
20260508131325 57 273 0.0 0.0 0.00 0.00 0.00 98 1018.0
20260508130758 56 273 0.0 0.0 0.00 0.00 0.00 98 1018.1
20260508130256 56 273 0.0 0.0 0.00 0.00 0.00 98 1018.1
20260508125744 56 273 0.0 0.0 0.00 0.00 0.00 98 1017.8
20260508125205 56 273 0.0 0.0 0.00 0.00 0.00 99 1017.9
20260508124703 56 273 0.0 0.0 0.00 0.00 0.00 99 1017.8
20260508124146 56 273 0.0 0.0 0.00 0.00 0.00 99 1017.8
20260508123647 56 273 0.0 0.0 0.00 0.00 0.00 99 1017.8
20260508123126 56 273 0.0 0.0 0.00 0.00 0.00 99 1017.8
20260508121601 55 273 0.0 0.0 0.00 0.00 0.00 99 1017.5
20260508121050 55 273 0.0 0.0 0.00 0.00 0.00 99 1017.4
20260508120551 55 273 0.0 0.0 0.00 0.00 0.00 99 1017.3
20260508120033 55 273 0.0 0.0 0.00 0.00 0.00 99 1017.2
20260508115530 55 273 0.0 0.0 0.00 0.00 0.00 99 1017.3
20260508114441 54 273 0.0 0.0 0.00 0.00 0.00 98 1017.1
20260508113938 54 273 0.0 0.0 0.00 0.00 0.00 98 1016.9
20260508113436 54 273 0.0 0.0 0.00 0.00 0.00 98 1016.9
20260508112432 54 273 0.0 0.0 0.00 0.00 0.00 98 1016.7
20260508111908 54 273 0.0 0.0 0.00 0.00 0.00 98 1016.6
20260508111407 54 273 0.0 0.0 0.00 0.00 0.00 98 1016.6
20260508110854 54 273 0.0 0.0 0.00 0.00 0.00 98 1016.5
20260508105852 54 273 0.0 0.0 0.00 0.00 0.00 98 1016.4
20260508105349 54 273 0.0 0.0 0.00 0.00 0.00 98 1016.4
20260508104834 54 273 0.0 0.0 0.00 0.00 0.00 98 1016.5
20260508104332 54 273 0.0 0.0 0.00 0.00 0.00 98 1016.4
20260508103810 54 273 0.0 0.0 0.00 0.00 0.00 98 1016.4
20260508103252 55 273 0.0 0.0 0.00 0.00 0.00 98 1016.2
20260508102251 55 273 0.0 0.0 0.00 0.00 0.00 98 1016.2
20260508101752 55 273 0.0 0.0 0.00 0.00 0.00 98 1016.2
20260508101250 55 273 0.0 0.0 0.00 0.00 0.00 98 1016.2
20260508100223 55 273 0.0 0.0 0.00 0.00 0.00 98 1016.2
20260508095722 55 273 0.0 0.0 0.00 0.00 0.00 98 1016.1
20260508095220 55 273 0.0 0.0 0.00 0.00 0.00 98 1015.9
20260508094718 55 273 0.0 0.0 0.00 0.00 0.00 98 1015.7
20260508094213 55 273 0.0 0.0 0.00 0.00 0.00 98 1015.5
20260508093711 55 273 0.0 0.0 0.00 0.01 0.00 98 1015.4
20260508093156 55 273 0.0 0.0 0.00 0.01 0.00 98 1015.2
20260508092652 55 273 0.0 0.0 0.00 0.01 0.00 98 1015.0
20260508091115 55 273 0.0 0.0 0.00 0.01 0.00 97 1014.8
20260508090550 55 273 0.0 0.0 0.00 0.03 0.00 97 1014.8
20260508090036 55 273 0.0 0.0 0.00 0.06 0.00 97 1014.8
20260508085535 55 273 0.0 0.0 0.00 0.07 0.00 97 1014.7
20260508085029 55 273 0.0 0.0 0.00 0.11 0.00 97 1014.7
20260508084518 55 273 0.0 0.0 0.00 0.13 0.00 97 1014.7
20260508084018 55 273 0.0 0.0 0.00 0.14 0.00 97 1014.7
20260508083013 55 273 0.0 0.0 0.00 0.17 0.00 97 1014.6
20260508082446 55 273 0.0 0.0 0.00 0.17 0.00 97 1014.6
20260508081943 55 273 0.0 0.0 0.00 0.17 0.00 97 1014.6
20260508081416 55 273 0.0 0.0 0.00 0.17 0.00 97 1014.5
20260508080913 55 273 0.0 0.0 0.00 0.17 0.00 97 1014.5
20260508080353 55 273 0.0 0.0 0.00 0.17 0.00 97 1014.5
20260508075343 56 273 0.0 0.0 0.00 0.17 0.00 97 1014.7
20260508074812 56 273 0.0 0.0 0.00 0.18 0.00 97 1014.8
20260508074309 56 273 0.0 0.0 0.00 0.18 0.00 97 1014.8
20260508073742 56 273 0.0 0.0 0.00 0.18 0.00 97 1014.8
20260508073237 56 273 0.0 0.0 0.00 0.18 0.00 97 1014.9
20260508072728 56 273 0.0 0.0 0.00 0.20 0.00 97 1015.0
20260508072225 56 273 0.0 0.0 0.00 0.22 0.00 97 1015.0
20260508071658 56 273 0.0 0.0 0.00 0.22 0.00 97 1015.2
20260508071156 57 273 0.0 0.0 0.00 0.22 0.00 97 1015.2
20260508070653 57 273 0.0 0.0 0.00 0.23 0.00 97 1015.1
20260508070137 57 273 0.0 0.0 0.00 0.24 0.00 97 1015.1
20260508065640 57 273 0.0 0.0 0.00 0.26 0.00 97 1014.9
20260508065135 57 273 0.0 0.0 0.00 0.26 0.00 97 1015.1
20260508064113 57 273 0.0 0.0 0.00 0.26 0.00 97 1015.0
20260508063612 57 273 0.0 0.0 0.00 0.26 0.00 97 1015.1
20260508063112 57 273 0.0 0.0 0.00 0.26 0.00 96 1015.2
20260508062627 57 273 0.0 0.0 0.00 0.26 0.00 96 1015.2
20260508062047 57 273 0.0 0.0 0.00 0.26 0.00 96 1015.2
20260508061520 57 273 0.0 0.0 0.00 0.26 0.00 96 1015.2
20260508060505 57 273 0.0 0.0 0.00 0.26 0.00 96 1015.2
20260508060005 57 273 0.0 0.0 0.00 0.26 0.00 96 1015.2
20260508055456 57 273 0.0 0.0 0.00 0.26 0.00 96 1015.2
20260508055000 57 273 0.0 0.0 0.00 0.26 0.00 96 1015.5
20260508054426 57 273 0.0 0.0 0.00 0.26 0.00 96 1015.5
20260508053923 58 273 0.0 0.0 0.00 0.26 0.00 96 1015.6
20260508053358 58 273 0.0 0.0 0.00 0.27 0.00 96 1015.7
20260508052852 58 273 0.0 0.0 0.00 0.27 0.00 95 1015.8
20260508052334 58 273 0.0 0.0 0.00 0.27 0.00 95 1015.7
20260508051826 58 273 0.0 0.0 0.00 0.27 0.00 95 1015.6
20260508051259 58 273 0.0 0.0 0.00 0.28 0.00 95 1015.7
20260508050757 58 273 0.0 0.0 0.00 0.28 0.00 95 1015.6
20260508050230 58 273 0.0 0.0 0.00 0.28 0.00 95 1015.8
20260508045715 58 273 0.0 0.0 0.00 0.28 0.28 95 1015.9
20260508045216 58 273 0.0 0.0 0.00 0.28 0.28 94 1015.7
20260508044650 58 273 0.0 0.0 0.00 0.28 0.28 94 1015.7
20260508044146 58 273 0.0 0.0 0.00 0.28 0.28 94 1015.9
20260508043620 58 273 0.0 0.0 0.00 0.28 0.28 94 1015.7
20260508043117 58 273 0.0 0.0 0.00 0.28 0.28 94 1015.8
20260508042626 58 273 0.0 0.0 0.00 0.28 0.28 94 1016.1
20260508042105 58 273 0.0 0.0 0.00 0.28 0.28 94 1015.8
20260508041537 58 273 0.0 0.0 0.00 0.28 0.28 94 1015.8
20260508041034 58 273 0.0 0.0 0.00 0.29 0.28 93 1015.7
20260508040507 58 273 0.0 0.0 0.00 0.31 0.28 93 1015.6
20260508040004 58 273 0.0 0.0 0.00 0.32 0.28 93 1015.8
20260508034420 59 273 0.0 0.0 0.00 0.36 0.28 92 1015.9
20260508033850 59 273 0.0 0.0 0.00 0.39 0.28 92 1015.8
20260508033323 59 273 0.0 0.0 0.00 0.40 0.28 92 1015.7
20260508032820 59 273 0.0 0.0 0.00 0.40 0.28 92 1015.6
20260508032306 59 273 0.0 0.0 0.00 0.41 0.28 92 1015.5
20260508031802 60 273 0.0 0.0 0.00 0.41 0.28 92 1015.6
20260508031254 60 273 0.0 0.0 0.00 0.41 0.28 92 1015.7
20260508030233 60 273 0.0 0.0 0.00 0.44 0.28 91 1015.4
20260508025734 60 273 0.0 0.0 0.00 0.46 0.28 91 1015.6
20260508025217 60 273 0.0 0.0 0.00 0.48 0.28 91 1015.5
20260508024718 60 273 0.0 0.0 0.00 0.52 0.28 91 1015.6
20260508024149 60 273 0.0 0.0 0.00 0.54 0.28 91 1015.3
20260508023622 60 273 0.0 0.0 0.00 0.55 0.28 91 1015.1
20260508023058 60 273 0.0 0.0 0.00 0.55 0.28 91 1015.1
20260508022532 60 273 0.0 0.0 0.00 0.55 0.28 90 1015.2
20260508021514 61 273 0.0 0.0 0.00 0.59 0.28 88 1015.0
20260508020949 61 273 0.0 0.0 0.00 0.59 0.28 88 1015.0
20260508020422 61 273 0.0 0.0 0.00 0.60 0.28 87 1015.2
20260508015854 62 273 0.0 0.0 0.00 0.60 0.28 86 1015.1
20260508015352 62 273 0.0 0.0 0.00 0.60 0.28 86 1014.9
20260508014839 62 273 0.0 0.0 0.00 0.60 0.28 85 1014.8
20260508014338 62 273 0.0 0.0 0.00 0.60 0.28 85 1014.9
20260508013813 63 273 0.0 0.0 0.00 0.60 0.28 84 1014.8
20260508012726 63 273 0.0 0.0 0.00 0.60 0.28 81 1014.8
20260508012203 63 273 0.0 0.0 0.00 0.60 0.28 81 1014.8
20260508011651 64 273 0.0 0.0 0.00 0.60 0.28 81 1014.7